Starlink 30586

operational
NORAD ID: 58084 Int'l Des: 2023-160 Owner: SPXS Country: US Constellation: starlink
LEOCIRCULAR

关于 Starlink 30586

正在加载描述...

实时位置

正在加载3D地球...

即将过境

高度历史

Altitude vs Time

uPlot chart will show altitude changes over time

两行轨道根数

1 58084U 23160K 25260.48676623 -.00001305 00000-0 -81561-4 0 9990
2 58084 42.9983 301.3948 0001273 278.1500 81.9197 15.02524992106861
Epoch: Sep 17, 2025 • Age: 24 hours

当前状态

高度 568.7 km
速度 7.58 km/s
星下点 -36.11°S, 77.05°E
发射日期 Oct 18, 2023
运行时间 1.9 years
类型 internet

技术详情

分类 Payload
质量 730.00 kg
干质量 700.00 kg
总质量 730.00 kg
长度 0.30 m
直径 4.10 m
跨度 29.00 m
形状 Box + pan
制造商 SPXS
平台类型 Starlink V2M
阶段状态 In Orbit
所有者/国家 SPXS/US

大型星座

Loading constellations...